Regional Weather Roundup
Issued by NWS

Home | Current Version | Previous Version | Graphics & Text | Print | Product List | Glossary On
Versions: 1 2 3 4 5 6 7 8 9 10 11 12 13 14 15 16 17 18 19 20 21 22 23 24 25 26 27 28 29 30 31 32 33 34 35 36 37 38 39 40 41 42 43 44 45 46 47 48 49 50
000
ASUS45 KPSR 250410
RWRAZ

ARIZONA HOURLY REGIONAL WEATHER ROUNDUP
NATIONAL WEATHER SERVICE PHOENIX AZ
900 PM MST SUN SEP 24 2017

NOTE: FAIR INDICATES FEW OR NO CLOUDS BELOW 12,000 FEET WITH NO
SIGNIFICANT WEATHER AND/OR OBSTRUCTIONS TO VISIBILITY.

AZZ001>003-036-250500-
NORTHWEST ARIZONA

CITY           SKY/WX    TMP DP  RH WIND       PRES   REMARKS
BULLHEAD CITY  CLEAR     75  23  14 N12G18    29.86S
KINGMAN        CLEAR     57  24  28 NE6       29.99R
$$

AZZ004>008-015-016-018-250500-
NORTH CENTRAL ARIZONA

CITY           SKY/WX    TMP DP  RH WIND       PRES   REMARKS
GRAND CANYON   CLEAR     33  13  43 NE3       30.08S
WILLIAMS       CLEAR     37  12  35 CALM      30.07S
PRESCOTT       CLEAR     50  15  24 CALM      29.99R
FLAGSTAFF      CLEAR     38  12  34 CALM      30.08R
PAYSON           N/A     55   5  13 N5        29.99R
PAGE           CLEAR     59  29  31 W7        29.99R
$$

AZZ009>014-017-250500-
NORTHEAST ARIZONA

CITY           SKY/WX    TMP DP  RH WIND       PRES   REMARKS
WINSLOW        CLEAR     56   3  11 N6        29.99R
SAINT JOHNS    CLEAR     48  16  27 W5        30.00R
WINDOW ROCK    CLEAR     42  10  27 CALM      30.05S
SHOW LOW       CLEAR     52  18  25 CALM      30.05S
$$

AZZ540-542>544-546-548-250500-
GREATER PHOENIX AREA

CITY           SKY/WX    TMP DP  RH WIND       PRES   REMARKS
PHOENIX        CLEAR     78  18  10 W12       29.76R
BUCKEYE        CLEAR     68  14  12 NW8       29.80R
LUKE AFB       CLEAR     74  20  13 NW8       29.76S
DEER VALLEY    CLEAR     73  14  10 NW3       29.78S
SCOTTSDALE     CLEAR     74  19  12 CALM      29.80R
MESA-GATEWAY   CLEAR     70  21  16 CALM      29.80R
$$

AZZ539-553-250500-
SOUTHWEST MARICOPA COUNTY AND PINAL COUNTY

CITY           SKY/WX    TMP DP  RH WIND       PRES   REMARKS
CASA GRANDE    NOT AVBL
GILA BEND      FAIR      71  19  13 W7        29.78R
$$

AZZ503-504-507>509-250500-
SOUTHEAST ARIZONA

CITY           SKY/WX    TMP DP  RH WIND       PRES   REMARKS
TUCSON         CLEAR     72  23  16 NW7       29.86R
DAVIS-MONTHAN  CLEAR     71  24  17 NW10      29.83S
NOGALES        CLEAR     60  30  32 E3        29.89R
SIERRA VISTA   CLEAR     63  25  23 W10       29.94R
DOUGLAS        CLEAR     65  30  27 NW9       29.89R
SAFFORD        CLEAR     72  20  14 NW13      29.81R
$$

AZZ532-250500-
SOUTHWEST ARIZONA

CITY           SKY/WX    TMP DP  RH WIND       PRES   REMARKS
YUMA           CLEAR     76  27  16 N5        29.81R
$$

CAZ041-043-047-048-061-525>527-560>570-250500-
SOUTHERN CALIFORNIA

CITY           SKY/WX    TMP DP  RH WIND       PRES   REMARKS
DOWNTOWN L.A.  CLEAR     72  45  37 CALM      29.85R
L.A. AIRPORT   PTCLDY    70  54  56 W7        29.86R
SAN DIEGO      CLEAR     70  60  70 NW3       29.87R
BURBANK        CLEAR     72  30  21 W5        29.87R
ONTARIO        PTCLDY    71  37  28 W8        29.87R
RIVERSIDE      CLEAR     69  41  36 W6        29.87R
PALM SPRINGS   CLEAR     81  23  11 NW10      29.87R
EL CENTRO NAS  CLEAR     73  28  18 W5        29.82R
IMPERIAL       CLEAR     74  35  24 NW6       29.80R
BLYTHE         CLEAR     75  22  13 NW8       29.83R
NEEDLES        CLEAR     74  24  15 N8        29.88R
$$

NVZ020-UTZ003-250500-
SOUTHERN NEVADA-UTAH

CITY           SKY/WX    TMP DP  RH WIND       PRES   REMARKS
LAS VEGAS      CLEAR     69  27  20 CALM      29.95R
SALT LAKE CITY CLOUDY    45  43  93 SE8       30.11R
$$

NMZ009-TXZ055-250500-
NEW MEXICO-WEST TEXAS

CITY           SKY/WX    TMP DP  RH WIND       PRES   REMARKS
ALBUQUERQUE    MOCLDY    66  16  14 NW13G29   29.93R
EL PASO        PTCLDY    75  41  29 NE6       29.83R
$$


........................KEY........................
SKY/WX - SKY CONDITION/WEATHER
TMP    - TEMPERATURE IN FAHRENHEIT
DP     - DEW POINT IN FAHRENHEIT
RH     - RELATIVE HUMIDITY IN PERCENT
WIND   - DIRECTION AND SPEED IN MILES PER HOUR (MPH)
VRB    - VARIABLE WIND DIRECTION
PRES   - MEAN SEA LEVEL PRESSURE IN INCHES OF MERCURY
         F - FALLING PRESSURE   R - RISING PRESSURE
         S - STEADY PRESSURE
VSB    - VISIBILITY IN MILES
HX     - HEAT INDEX IN FAHRENHEIT
WCI    - WIND CHILL INDEX IN FAHRENHEIT
TC     - TEMPERATURE IN CELSIUS WHICH IS ALSO KNOWN AS
         TEMPERATURE IN CENTIGRADE
AFB    - AIR FORCE BASE
         LUKE AFB IS LUKE AIR FORCE BASE
         DAVIS-MONTHAN IS DAVIS-MONTHAN AIR FORCE BASE
NAS    - NAVAL AIR STATION
         EL CENTRO NAS IS EL CENTRO NAVAL AIR STATION
N/A    - NOT AVAILABLE




USA.gov is the U.S. government's official web portal to all federal, state and local government web resources and services.